Selinsgrove, PA

8:04 PM EDT on August 18, 2017 (GMT -0400)
Penn Valley

Weather History for KSEG - November, 2012

Change the Weather History Date:

Friday, November 23, 2012

  Actual Average (KIPT) Record (KIPT)
Temperature  
Mean Temperature 40 °F -  
Max Temperature 54 °F 46 °F 66 °F (1992)
Min Temperature 25 °F 30 °F 14 °F (1964)
Degree Days  
Heating Degree Days 26    
Moisture  
Dew Point 30 °F    
Average Humidity 70    
Maximum Humidity 100    
Minimum Humidity 43    
Precipitation  
Precipitation 0.00 in - - ()
Sea Level Pressure  
Sea Level Pressure 29.91 in    
Wind  
Wind Speed 2 mph (SW)    
Max Wind Speed 13 mph    
Max Gust Speed 26 mph    
Visibility 7 miles    
Events      
Averages and records for this station are not official NWS values.
T = Trace of Precipitation, MM = Missing Value Source: NWS Daily Summary

Daily Weather History Graph

Daily Weather History Graph

Search for Another Location

Airport or City:

Trip Planner

Search our weather history database for the weather conditions in past years. The results will help you decide how hot, cold, wet, or windy it might be!

Date:

Astronomy

Nov. 23, 2012 Rise Set
Actual Time 7:04 AM EST 4:43 PM EST
Civil Twilight 6:34 AM EST 5:13 PM EST
Nautical Twilight 6:00 AM EST 5:47 PM EST
Astronomical Twilight 5:27 AM EST 6:19 PM EST
Moon 1:58 PM EST (11/23) 2:19 AM EST (11/23)
Length of Visible Light 10h 39m
Length of Day
9h 39m
Waxing Gibbous, 79% of the Moon is Illuminated
Nov 23
Waxing Gibbous
Nov 28
Full
Dec 6
Last Quarter
Dec 13
New
Dec 20
First Quarter

Hourly Weather History & Observations

Time (EST) Temp. Windchill Dew Point Humidity Pressure Visibility Wind Dir Wind Speed Gust Speed Precip Events Conditions
12:53 AM 26.1 °F - 26.1 °F 100% 30.12 in 5.0 mi Calm Calm - N/A   Clear
1:53 AM 26.1 °F - 24.1 °F 92% 30.11 in 4.0 mi Calm Calm - N/A   Clear
2:53 AM 27.0 °F - 24.1 °F 89% 30.10 in 5.0 mi Calm Calm - N/A   Clear
3:53 AM 25.0 °F - 23.0 °F 92% 30.08 in 4.0 mi Calm Calm - N/A   Clear
4:53 AM 25.0 °F - 24.1 °F 96% 30.06 in 4.0 mi Calm Calm - N/A   Clear
5:53 AM 25.0 °F - 23.0 °F 92% 30.04 in 5.0 mi Calm Calm - N/A   Clear
7:53 AM 27.0 °F - 26.1 °F 96% 30.00 in 3.0 mi Calm Calm - N/A   Clear
8:20 AM 30.2 °F - 28.4 °F 93% 29.98 in 2.5 mi Calm Calm - N/A   Clear
8:32 AM 30.2 °F - 28.4 °F 93% 29.98 in 3.0 mi Calm Calm - N/A   Clear
8:53 AM 34.0 °F - 30.9 °F 89% 29.99 in 4.0 mi Calm Calm - N/A   Clear
9:53 AM 42.1 °F - 35.1 °F 76% 29.96 in 6.0 mi Calm Calm - N/A   Haze
10:53 AM 50.0 °F - 30.9 °F 48% 29.91 in 10.0 mi South 9.2 mph - N/A   Clear
11:53 AM 53.1 °F - 30.9 °F 43% 29.86 in 10.0 mi SW 9.2 mph - N/A   Clear
12:53 PM 54.0 °F - 32.0 °F 43% 29.83 in 10.0 mi SSW 9.2 mph - N/A   Mostly Cloudy
1:53 PM 53.1 °F - 32.0 °F 45% 29.79 in 10.0 mi South 8.1 mph - N/A   Overcast
2:53 PM 53.1 °F - 32.0 °F 45% 29.78 in 10.0 mi Calm Calm - N/A   Overcast
3:53 PM 53.1 °F - 32.0 °F 45% 29.78 in 10.0 mi Calm Calm - N/A   Overcast
4:53 PM 48.0 °F - 39.0 °F 71% 29.79 in 10.0 mi Calm Calm - 0.00 in   Overcast
5:53 PM 48.0 °F - 39.0 °F 71% 29.77 in 10.0 mi Calm Calm - 0.00 in   Overcast
6:53 PM 46.9 °F - 39.0 °F 74% 29.77 in 10.0 mi Calm Calm - N/A   Scattered Clouds
7:53 PM 48.9 °F - 34.0 °F 56% 29.78 in 10.0 mi WSW 6.9 mph - N/A   Clear
8:53 PM 48.0 °F - 33.1 °F 56% 29.78 in 10.0 mi West 8.1 mph 19.6 mph N/A   Clear
9:53 PM 46.0 °F 40.2 °F 28.9 °F 51% 29.80 in 10.0 mi West 12.7 mph 21.9 mph N/A   Mostly Cloudy
10:53 PM 42.1 °F 35.2 °F 23.0 °F 47% 29.85 in 10.0 mi West 12.7 mph 26.5 mph N/A   Overcast
11:53 PM 39.9 °F 34.5 °F 23.0 °F 51% 29.85 in 10.0 mi West 8.1 mph - N/A   Overcast